Location: �terpigny
(49.8910°N, 2.9249°E)
Time: 09:02:00
(UTC+00:00)

EO-88 - Pass Details

Date: 06 July 2022
Orbit: 453 x 461 km, 97.3° (Epoch: 13 August)

Event Time Altitude Azimuth Distance (km) Brightness Sun altitude
Exits shadow 20:48:58 - 153° (SSE) 1,765 ? -6.8°
Reaches altitude 10° 20:49:18 10° 152° (SSE) 1,622 ? -6.8°
Maximum altitude 20:52:43 56° 73° (ENE) 562 ? -7.2°
Drops below altitude 10° 20:56:09 10° 355° (N) 1,632 ? -7.6°
Sets 20:58:14 0° 351° (N) 2,511 ? -7.8°
